This is the latest recevied weather packets stored in our database for station/object IU1OLT-5. If no packets are shown the sender has not sent any weather packets the latest 10 day(s).
| Time | Temp. | Humidity | Pressure | Rain* | Wind** | Luminosity | Snow |
|---|---|---|---|---|---|---|---|
| 1777741893 | 17.78° C | 55% | 1021.5 hPa | 0 mm | - | 68 W/m² | - |
| 1777740993 | 17.78° C | 50% | 1021.6 hPa | 0 mm | - | 98 W/m² | - |
| 1777740092 | 17.78° C | 52% | 1021.5 hPa | 0 mm | - | 119 W/m² | - |
| 1777739192 | 18.33° C | 48% | 1021.8 hPa | 0 mm | - | 155 W/m² | - |
| 1777738292 | 18.33° C | 47% | 1022 hPa | 0 mm | - | 162 W/m² | - |
| 1777737392 | 18.33° C | 48% | 1022.1 hPa | 0 mm | - | 158 W/m² | - |
| 1777736492 | 18.89° C | 45% | 1022.1 hPa | 0 mm | - | 233 W/m² | - |
| 1777735592 | 18.89° C | 44% | 1022.3 hPa | 0 mm | - | 284 W/m² | - |
| 1777734691 | 18.33° C | 45% | 1022.5 hPa | 0 mm | - | 326 W/m² | - |
| 1777733791 | 19.44° C | 43% | 1022.5 hPa | 0 mm | - | 367 W/m² | - |
| 1777732891 | 19.44° C | 41% | 1022.8 hPa | 0 mm | - | 403 W/m² | - |
| 1777731991 | 20° C | 45% | 1022.8 hPa | 0 mm | - | 437 W/m² | - |
| 1777731091 | 18.33° C | 45% | 1023.1 hPa | 0 mm | - | 482 W/m² | - |
| 1777730191 | 18.89° C | 46% | 1023 hPa | 0 mm | - | 521 W/m² | - |
| 1777729290 | 18.89° C | 46% | 1023.3 hPa | 0 mm | - | 550 W/m² | - |
| 1777728390 | 18.33° C | 46% | 1023.6 hPa | 0 mm | - | 584 W/m² | - |
| 1777727490 | 18.89° C | 49% | 1023.7 hPa | 0 mm | - | 614 W/m² | - |
| 1777726589 | 18.89° C | 51% | 1023.8 hPa | 0 mm | - | 645 W/m² | - |
| 1777725689 | 18.33° C | 48% | 1023.8 hPa | 0 mm | - | 666 W/m² | - |
| 1777724789 | 18.33° C | 49% | 1023.9 hPa | 0 mm | - | 680 W/m² | - |
| 1777723888 | 18.33° C | 48% | 1024.1 hPa | 0 mm | - | 713 W/m² | - |
| 1777722988 | 17.78° C | 49% | 1024.2 hPa | 0 mm | - | 709 W/m² | - |
| 1777722088 | 17.78° C | 49% | 1024.5 hPa | 0 mm | - | 719 W/m² | - |
| 1777721188 | 18.33° C | 44% | 1024.6 hPa | 0 mm | - | 728 W/m² | - |
| 1777720288 | 18.33° C | 42% | 1024.8 hPa | 0 mm | - | 737 W/m² | - |
* Rain latest hour (hover to see other rain measurements)
** Current wind speed in m/s (hover to see current wind gust speed)